Date,TemperatureHighF,TemperatureAvgF,TemperatureLowF,DewpointHighF,DewpointAvgF,DewpointLowF,HumidityHigh,HumidityAvg,HumidityLow,PressureMaxIn,PressureMinIn,WindSpeedMaxMPH,WindSpeedAvgMPH,GustSpeedMaxMPH,PrecipitationSumIn
2013-9-1,86,69,54,86,48,14,48,21,10,24.31,24.22,32,17,35,0.00
2013-9-2,86,73,65,86,41,17,32,17,10,24.26,24.18,36,19,37,0.00
2013-9-3,82,71,63,43,35,29,45,28,16,24.37,24.26,28,11,28,0.00
2013-9-4,84,71,62,51,45,34,60,41,18,26.40,24.33,21,8,30,0.00
2013-9-5,82,70,61,56,48,43,83,47,26,24.35,24.25,40,16,42,0.00
2013-9-6,79,64,56,59,53,45,99,71,34,24.32,24.21,69,17,69,0.00
2013-9-7,62,57,54,60,56,54,99,97,78,24.35,24.22,33,12,45,0.00
2013-9-8,68,55,49,56,51,41,99,85,55,24.29,24.14,46,11,46,0.00
2013-9-9,64,55,49,53,45,40,96,70,45,24.29,24.16,38,17,38,0.00
2013-9-10,73,62,52,49,42,31,74,50,22,24.37,24.28,21,9,23,0.00
2013-9-11,72,64,57,50,41,31,59,44,27,24.48,24.37,32,13,34,0.00
2013-9-12,79,64,53,45,41,31,61,45,20,24.47,24.28,32,19,37,0.00
2013-9-13,78,65,55,47,42,29,68,45,19,24.28,24.11,26,14,29,0.00
2013-9-14,64,57,51,50,47,43,81,68,51,24.33,24.15,30,18,34,0.00
2013-9-15,70,59,50,52,47,43,81,66,45,24.33,24.17,46,28,46,0.00
2013-9-16,78,64,53,52,45,32,93,55,23,24.18,24.04,40,22,46,0.00
2013-9-17,62,55,48,52,44,37,99,71,42,24.11,23.92,34,14,36,0.00
2013-9-18,52,44,32,46,39,32,99,83,52,24.22,23.91,41,20,44,0.00
2013-9-19,59,45,32,40,34,29,99,69,35,24.33,24.22,17,10,21,0.00
2013-9-20,69,54,41,69,33,9,70,38,10,24.25,24.02,32,20,36,0.00
2013-9-21,76,62,53,76,21,12,34,20,10,24.03,23.88,37,21,42,0.00
2013-9-22,60,52,45,43,34,24,80,52,30,23.94,23.88,33,13,35,0.00
2013-9-23,53,46,41,38,30,22,90,56,31,24.12,23.93,51,23,51,0.00
2013-9-24,49,43,38,44,35,29,99,75,50,24.12,23.96,40,17,41,0.00
2013-9-25,40,37,31,39,36,21,99,95,64,23.98,23.91,44,14,50,0.00
2013-9-26,35,32,29,35,26,14,99,83,49,24.15,23.97,41,6,46,0.00
2013-9-27,42,36,29,32,29,24,99,76,56,24.15,24.05,35,11,36,0.00
2013-9-28,51,44,37,38,34,31,80,69,54,24.07,23.94,51,23,61,0.00
2013-9-29,53,45,39,38,32,27,93,61,47,23.96,23.74,66,40,66,0.00
2013-9-30,47,42,38,41,29,21,91,61,38,24.04,23.71,62,38,67,0.00